Home   Weather   Barnaul   Past weeks

Flag for Russia Past Weather in Barnaul, Russia — Yesterday and Last 2 Weeks

Now
0 °F

Clear.


Feels Like: -15 °F
Forecast: 22 / 27 °F
Wind: 8 mph from South

Location: Barnaul Airport

Current Time: Jan 20, 2017 at 8:49:08 am

Latest Report: Jan 20, 2017 at 8:00 am


Visibility: 10 mi

Pressure: 30.39 "Hg

Humidity: 78%

Dew Point: -6 °F

Location of BarnaulLocation

Past Weather in Barnaul — Graph

°F

Barnaul Temperature Yesterday

Maximum temperature yesterday: 5 °F (at 3:00 pm)
Minimum temperature yesterday: -6 °F (at 7:00 am)
Average temperature yesterday: -1 °F

High & Low Weather Summary for the Past Weeks

 TemperatureHumidityPressure
High32 °F (Jan 5, 2:00 pm)93% (Jan 6, 3:00 am)30.72 "Hg (Jan 6, 3:00 am)
Low-6 °F (Jan 18, 7:00 am)62% (Jan 11, 3:30 pm)29.83 "Hg (Jan 12, 12:30 am)
Average8 °F81%30.38 "Hg
* Reported Jan 5 7:00 am — Jan 20 7:30 am, Barnaul, Weather by CustomWeather, © 2017

Note: Actual official high and low records may vary slightly from our data, if they occured in-between our weather recording intervals... More about our weather records

Advertising

Barnaul Weather History for the Previous 24 Hours

Scroll right to see more
 ConditionsComfort  
Time TempWeatherWind HumidityBarometerVisibility
7:30 am
Fri, Jan 20
-2 °FClear.8 mph84%30.39 "Hg10 mi
7:00 am0 °FClear.8 mph78%30.39 "Hg10 mi
6:30 am0 °FClear.8 mph78%30.39 "Hg10 mi
6:00 am-2 °FClear.8 mph77%30.39 "Hg10 mi
5:30 am-2 °FClear.8 mph77%30.39 "Hg10 mi
5:00 am-2 °FClear.6 mph77%30.39 "Hg10 mi
4:30 am-2 °FClear.6 mph77%30.42 "Hg10 mi
4:00 am0 °FClear.8 mph78%30.42 "Hg10 mi
3:30 am0 °FClear.8 mph78%30.42 "Hg10 mi
3:00 am0 °FClear.6 mph84%30.42 "HgN/A
2:30 am-2 °FClear.6 mph77%30.42 "Hg10 mi
2:00 am0 °FClear.8 mph84%30.42 "Hg10 mi
1:30 am-2 °FClear.8 mph77%30.45 "HgN/A
1:00 am-2 °FIce fog.8 mph77%30.45 "HgN/A
12:30 am-2 °FIce fog.3 mph84%30.45 "HgN/A
12:00 am0 °FClear.6 mph84%30.48 "HgN/A
11:30 pm
Thu, Jan 19
-2 °FClear.6 mph84%30.48 "HgN/A
11:00 pm3 °FClear.3 mph78%30.48 "Hg10 mi
10:30 pm3 °FClear.3 mph85%30.48 "Hg10 mi
10:00 pm5 °FClear.6 mph78%30.51 "Hg10 mi
9:30 pm5 °FClear.6 mph78%30.51 "Hg10 mi
9:00 pm1 °FClear.6 mph78%30.51 "HgN/A
8:30 pm3 °FClear.6 mph78%30.51 "HgN/A
8:00 pm1 °FClear.6 mph85%30.51 "Hg10 mi
7:30 pm0 °FClear.6 mph84%30.54 "Hg10 mi
7:00 pm1 °FClear.6 mph78%30.54 "Hg10 mi
6:30 pm1 °FClear.6 mph78%30.54 "Hg10 mi
6:00 pm1 °FClear.6 mph85%30.54 "Hg10 mi
5:30 pm3 °FSunny.6 mph78%30.54 "Hg10 mi
5:00 pm5 °FSunny.6 mph78%30.54 "Hg10 mi
4:30 pm5 °FSunny.3 mph78%30.54 "Hg10 mi
4:00 pm5 °FSunny.6 mph78%30.54 "Hg10 mi
3:30 pm5 °FSunny.3 mph78%30.54 "Hg10 mi
3:00 pm5 °FSunny.3 mph78%30.54 "Hg10 mi
2:30 pm3 °FSunny.6 mph85%30.54 "Hg10 mi
2:00 pm1 °FSunny.6 mph85%30.54 "Hg10 mi
1:30 pm1 °FPassing clouds.3 mph78%30.54 "HgN/A
1:00 pm0 °FPassing clouds.3 mph78%30.54 "HgN/A
12:30 pm0 °FPartly sunny.3 mph78%30.54 "HgN/A
12:00 pm0 °FPartly sunny.3 mph84%30.54 "HgN/A
11:30 am-4 °FPassing clouds.1 mph71%30.54 "HgN/A
11:00 am-2 °FScattered clouds.3 mph77%30.54 "HgN/A
10:30 am-4 °FIce fog.6 mph77%30.54 "Hg3 mi
10:00 am-4 °FBroken clouds.3 mph77%30.54 "Hg6 mi
9:30 am-4 °FBroken clouds.6 mph77%30.54 "HgN/A
9:00 am-4 °FLight snow. Partly cloudy.6 mph77%30.54 "HgN/A
8:30 am-4 °FLight snow. Passing clouds.3 mph77%30.54 "HgN/A
8:00 am-6 °FLight snow. Partly cloudy.3 mph77%30.54 "HgN/A
Weather by CustomWeather, © 2017

See weather overviewHow to use our weather pages